Wind_Speed
41 36 33 32 35 40 43 41 39 37 36 39 42 40 31 32 31 30 27 30 32 28
40 39 35 34 39 44 44 39 39 40 37 37 39 37 34 34 35 35 34 33 31 33
39 39 38 37 41 43 42 39 44 44 42 36 34 34 33 33 34 35 36 34 32 31
37 38 39 39 39 42 42 42 48 47 44 40 37 39 35 33 34 33 32 34 32 30
37 36 39 41 41 39 45 45 45 48 46 45 43 40 36 35 35 36 37 37 33 33
40 39 39 39 40 38 42 46 44 45 45 46 43 43 41 39 38 38 37 36 36 35
44 42 40 39 40 39 39 43 45 49 48 52 50 46 46 40 37 39 40 39 38 38
39 41 42 41 40 41 41 41 42 44 48 55 57 54 51 46 42 42 44 45 41 39
35 37 40 41 41 41 40 39 38 40 43 50 53 56 57 57 56 50 45 39 38 40
36 36 36 40 43 44 41 39 38 38 39 40 42 45 48 47 47 46 42 41 41 41
37 36 35 36 38 41 44 45 44 41 39 39 40 40 42 42 41 42 42 43 44 43
41 39 36 36 36 36 37 38 41 45 43 42 43 44 43 43 44 44 44 41 38 37
39 42 41 39 36 34 35 39 40 42 45 45 44 46 44 44 42 39 35 32 32 24
38 38 37 37 39 40 41 41 40 38 39 42 43 42 40 38 37 36 33 25 22 20
Wind_Direction
195 192 196 194 189 186 183 182 180 185 192 198 197 206 214 208 211 212 215 227 221 228
204 204 205 201 194 192 191 189 193 191 195 198 205 211 214 218 219 222 225 229 230 235
208 213 217 207 203 200 204 206 197 198 202 203 209 206 215 221 222 227 229 231 242 242
208 214 216 217 215 215 212 207 204 205 211 216 222 222 223 226 231 234 235 241 247 250
214 214 216 218 218 223 222 218 215 212 216 220 221 223 227 233 238 241 243 247 250 255
213 218 217 217 217 219 224 226 224 224 223 222 225 227 232 238 240 244 249 251 252 255
213 215 219 219 219 221 219 224 228 230 229 228 227 229 232 235 241 247 252 257 256 259
214 216 218 222 224 224 226 226 226 228 228 229 230 234 233 240 246 251 257 261 257 261
223 218 217 220 223 225 227 228 229 231 230 231 234 236 236 240 247 252 256 250 252 256
226 226 225 224 223 225 227 229 231 232 236 237 236 239 240 240 244 247 248 251 253 253
228 227 225 226 225 226 227 229 231 233 234 236 238 237 236 235 235 239 244 250 248 253
222 225 227 227 228 227 227 230 232 231 234 236 237 238 236 236 239 243 240 239 244 249
223 221 224 226 226 225 223 228 231 231 233 236 238 240 240 237 234 230 234 238 240 225
223 219 219 222 223 221 222 223 223 225 223 226 226 228 234 239 237 235 231 211 184 173
Height
1444 1449 1452 1456 1459 1464 1468 1473 1480 1486 1493 1499 1504 1510 1515 1518 1521 1525 1528 1531 1534 1536
1442 1447 1451 1456 1460 1464 1469 1474 1479 1484 1490 1496 1502 1507 1511 1513 1516 1520 1523 1526 1529 1531
1438 1443 1448 1454 1458 1462 1467 1472 1477 1482 1488 1494 1498 1502 1505 1508 1512 1516 1518 1520 1523 1525
1433 1438 1444 1449 1454 1459 1463 1468 1473 1478 1483 1488 1493 1497 1501 1504 1507 1509 1511 1514 1517 1519
1429 1432 1437 1442 1448 1454 1458 1464 1469 1475 1479 1483 1487 1491 1495 1498 1501 1503 1506 1508 1511 1512
1423 1428 1431 1436 1442 1447 1452 1457 1463 1468 1472 1476 1481 1485 1489 1492 1495 1497 1500 1501 1503 1505
1416 1420 1427 1432 1436 1440 1444 1449 1454 1459 1465 1470 1474 1478 1482 1484 1487 1490 1492 1494 1496 1497
1412 1417 1421 1424 1429 1434 1438 1442 1447 1452 1455 1461 1466 1469 1473 1476 1479 1482 1484 1486 1488 1487
1406 1410 1414 1419 1422 1427 1431 1435 1441 1443 1447 1451 1454 1458 1464 1468 1471 1473 1475 1476 1478 1477
1399 1403 1407 1412 1418 1421 1425 1430 1432 1436 1440 1443 1446 1450 1454 1459 1463 1465 1467 1468 1469 1469
1390 1395 1401 1406 1410 1415 1419 1423 1427 1430 1434 1437 1438 1442 1446 1451 1454 1456 1457 1458 1458 1459
1385 1389 1394 1398 1402 1408 1413 1418 1421 1424 1427 1430 1432 1435 1439 1443 1445 1447 1447 1447 1447 1448
1380 1384 1388 1395 1399 1403 1405 1408 1411 1415 1419 1422 1425 1427 1430 1432 1434 1435 1437 1438 1438 1439
1374 1378 1382 1387 1392 1395 1398 1400 1403 1406 1409 1413 1415 1417 1421 1424 1425 1426 1427 1428 1431 1434